Weather History for Laredo, TX

Change the Weather History Date:

Tuesday, November 20, 2012

  Actual Average Record
Temperature  
Mean Temperature 72 °F 64 °F  
Max Temperature 82 °F 75 °F 93 °F (2011)
Min Temperature 62 °F 53 °F 28 °F (1969)
Degree Days  
Heating Degree Days 0 4  
Month to date heating degree days 22 49  
Since 1 July heating degree days 35 61  
Cooling Degree Days 7 3  
Month to date cooling degree days 166 101  
Year to date cooling degree days 5037 4230  
Growing Degree Days 21 (Base 50)    
Moisture  
Dew Point 57 °F    
Average Humidity 64    
Maximum Humidity 84    
Minimum Humidity 45    
Precipitation  
Precipitation 0.00 in 0.03 in 1.70 in (1985)
Month to date precipitation 0.12 0.85  
Year to date precipitation 8.91 18.98  
Sea Level Pressure  
Sea Level Pressure 30.16 in    
Wind  
Wind Speed 5 mph (SE)    
Max Wind Speed 12 mph    
Max Gust Speed 14 mph    
Visibility 10 miles    
Events      
T = Trace of Precipitation, MM = Missing Value Source: NWS Daily Summary

Daily Weather History Graph

Daily Weather History Graph

Search for Another Location

Airport:

Trip Planner

Search our weather history database for the weather conditions in past years. The results will help you decide how hot, cold, wet, or windy it might be!

Date:

Astronomy

Nov. 20, 2012 Rise Set
Actual Time 7:02 AM CST 5:44 PM CST
Civil Twilight 6:37 AM CST 6:09 PM CST
Nautical Twilight 6:09 AM CST 6:37 PM CST
Astronomical Twilight 5:41 AM CST 7:05 PM CST
Moon 12:56 PM CST (11/20) No Moon Set
Length of Visible Light 11h 31m
Length of Day
10h 41m
First Quarter, 51% of the Moon is Illuminated
Nov 20
First Quarter
Nov 28
Full
Dec 6
Last Quarter
Dec 13
New
Dec 19
First Quarter

Hourly Weather History & Observations

Time (CST) Temp. Heat Index Dew Point Humidity Pressure Visibility Wind Dir Wind Speed Gust Speed Precip Events Conditions
12:56 AM 65.8 °F - 55.9 °F 70% 30.15 in 10.0 mi SE 4.6 mph - N/A   Clear
1:56 AM 63.9 °F - 55.9 °F 75% 30.15 in 10.0 mi SE 3.5 mph - N/A   Clear
2:56 AM 62.6 °F - 55.4 °F 77% 30.17 in 10.0 mi SE 5.8 mph - N/A   Clear
3:56 AM 63.0 °F - 56.8 °F 80% 30.14 in 10.0 mi Calm Calm - N/A   Clear
4:56 AM 61.9 °F - 56.8 °F 84% 30.14 in 10.0 mi East 5.8 mph - N/A   Scattered Clouds
5:56 AM 61.9 °F - 56.8 °F 84% 30.16 in 10.0 mi ESE 4.6 mph - N/A   Partly Cloudy
6:56 AM 63.0 °F - 57.9 °F 84% 30.17 in 10.0 mi ESE 4.6 mph - N/A   Mostly Cloudy
7:56 AM 63.9 °F - 57.9 °F 81% 30.20 in 10.0 mi Calm Calm - N/A   Overcast
8:56 AM 68.0 °F - 59.0 °F 73% 30.21 in 10.0 mi SE 5.8 mph - N/A   Mostly Cloudy
9:56 AM 73.9 °F - 61.0 °F 64% 30.22 in 10.0 mi South 9.2 mph - N/A   Clear
10:56 AM 77.0 °F - 59.0 °F 54% 30.20 in 10.0 mi South 6.9 mph - N/A   Clear
11:56 AM 79.0 °F - 57.9 °F 48% 30.19 in 10.0 mi SE 6.9 mph - N/A   Mostly Cloudy
12:56 PM 79.0 °F - 59.0 °F 50% 30.16 in 10.0 mi Variable 3.5 mph - N/A   Mostly Cloudy
1:56 PM 80.6 °F 81.1 °F 59.0 °F 48% 30.15 in 10.0 mi ESE 3.5 mph - N/A   Mostly Cloudy
2:56 PM 81.0 °F 81.1 °F 57.9 °F 45% 30.12 in 10.0 mi Variable 3.5 mph - N/A   Mostly Cloudy
3:56 PM 79.9 °F - 57.9 °F 47% 30.11 in 10.0 mi Calm Calm - N/A   Scattered Clouds
4:56 PM 79.9 °F - 56.8 °F 45% 30.12 in 10.0 mi Calm Calm - N/A   Clear
5:56 PM 77.0 °F - 56.8 °F 50% 30.12 in 10.0 mi ESE 5.8 mph - N/A   Clear
6:56 PM 73.9 °F - 56.8 °F 55% 30.14 in 10.0 mi ESE 3.5 mph - N/A   Clear
7:56 PM 72.9 °F - 56.8 °F 57% 30.16 in 10.0 mi East 4.6 mph - N/A   Clear
8:56 PM 70.0 °F - 56.8 °F 63% 30.17 in 10.0 mi East 6.9 mph - N/A   Clear
9:56 PM 70.9 °F - 55.9 °F 59% 30.18 in 10.0 mi SE 10.4 mph - N/A   Clear
10:56 PM 68.0 °F - 55.9 °F 65% 30.18 in 10.0 mi SE 8.1 mph - N/A   Clear
11:56 PM 66.9 °F - 56.8 °F 70% 30.18 in 10.0 mi SE 4.6 mph - N/A   Clear